Regional Weather Roundup
Issued by NWS

Home | Current Version | Previous Version | Text Only | Print | Product List | Glossary On
Versions: 1 2 3 4 5 6 7 8 9 10 11 12 13 14 15 16 17 18 19 20 21 22 23 24 25 26 27 28 29 30 31 32 33 34 35 36 37 38 39 40 41 42 43 44 45 46 47 48 49 50
975
ASUS43 KOAX 261402
RWRNE

WEATHER ROUNDUP FOR NEBRASKA
NATIONAL WEATHER SERVICE OMAHA NE
900 AM CDT FRI AUG 26 2016

NOTES: SATELLITE DATA IS BEING USED TO AUGMENT CLOUD COVER ABOVE
       12000 FEET.
       "FAIR" INDICATES FEW OR NO CLOUDS BELOW 12,000 FEET WITH NO
       SIGNIFICANT WEATHER AND/OR OBSTRUCTIONS TO VISIBILITY.

  * THESE STATIONS DO NOT REPORT WEATHER SUCH AS RAIN...SNOW OR FOG.

NEZ001>004-019>022-054>056-261500-
NEBRASKA PANHANDLE

CITY           SKY/WX    TMP DP  RH WIND       PRES   REMARKS
SCOTTSBLUFF    LGT RAIN  58  53  84 E3        30.14S
ALLIANCE       CLOUDY    55  52  89 SE7       30.14S
CHADRON        CLOUDY    55  52  89 N6        30.13R
KIMBALL        RAIN      56  56 100 SW3       30.19S
SIDNEY         CLOUDY    60  49  66 SE12      30.17R
$$

NEZ057>060-069>072-079>082-261500-
SOUTHWEST NEBRASKA

CITY           SKY/WX    TMP DP  RH WIND       PRES   REMARKS
NORTH PLATTE   CLOUDY    57  55  93 E5        30.18S FOG
IMPERIAL       MOSUNNY   59  54  83 SE8       30.17F
LEXINGTON      CLOUDY    59  56  89 E3        30.18S
MCCOOK         PTSUNNY   59  56  89 E5        30.17S FOG
OGALLALA       CLOUDY    60  54  79 S9        30.16F
$$

NEZ005>010-023>029-035>040-094-261500-
NORTH CENTRAL NEBRASKA

CITY           SKY/WX    TMP DP  RH WIND       PRES   REMARKS
VALENTINE      CLOUDY    55  48  77 CALM      30.18S
AINSWORTH      CLOUDY    56  53  88 SE5       30.18S
BROKEN BOW     CLOUDY    57  55  93 CALM      30.17F
O`NEILL        PTSUNNY   62  52  69 CALM      30.18S
ORD            MOSUNNY   58  54  86 CALM      30.16F
THEDFORD       MOSUNNY   56  54  91 SE3       30.20R
$$

NEZ041-046>049-061>064-073>077-083>087-261500-
SOUTH CENTRAL NEBRASKA

CITY           SKY/WX    TMP DP  RH WIND       PRES   REMARKS
GRAND ISLAND   CLOUDY    59  57  93 CALM      30.17S
AURORA         CLOUDY    60  59  97 CALM      30.16S
HASTINGS       CLOUDY    61  56  83 E6        30.17S
HEBRON         CLOUDY    63  60  92 NE7       30.12F
HOLDREGE       CLOUDY    60  57  90 NE3       30.16F
KEARNEY *      CLOUDY    59  55  88 NE3       30.17R
YORK           LGT RAIN  63  59  88 E6        30.16S
$$

NEZ011>018-030>034-042>045-261500-
NORTHEAST NEBRASKA

CITY           SKY/WX    TMP DP  RH WIND       PRES   REMARKS
NORFOLK        CLOUDY    59  56  89 CALM      30.18R
ALBION         MOSUNNY   56  54  92 CALM      30.18S
BLAIR          CLOUDY    62  58  87 E7        30.16F
FREMONT        CLOUDY    62  58  88 E5        30.16F
TEKAMAH        CLOUDY    60  58  92 CALM      30.16F
WAYNE          CLOUDY    57  56  94 CALM      30.19R
$$

NEZ050>053-065>068-078-088>093-261500-
SOUTHEAST NEBRASKA

CITY           SKY/WX    TMP DP  RH WIND       PRES   REMARKS
LINCOLN        CLOUDY    64  59  83 E9        30.14F
OMAHA EPPLEY   CLOUDY    65  57  75 CALM      30.15F
BEATRICE       CLOUDY    64  61  91 NE9       30.12F
FALLS CITY     LGT RAIN  66  64  93 E10       30.12S
NEBRASKA CITY  CLOUDY    62  62 100 CALM      30.15R
PLATTSMOUTH    CLOUDY    64  61  91 E5        30.16S
$$

NEZ044-045-051>053-067-261500-
OMAHA AREA

CITY           SKY/WX    TMP DP  RH WIND       PRES   REMARKS
OMAHA EPPLEY   CLOUDY    65  57  75 CALM      30.15F
BLAIR          CLOUDY    62  58  87 E7        30.16F
FREMONT        CLOUDY    62  58  88 E5        30.16F
MILLARD        CLOUDY    65  59  79 SE5       30.15F
OFFUTT AFB     CLOUDY    65  60  83 NE9       30.15F
PLATTSMOUTH    CLOUDY    64  61  91 E5        30.16S
WAHOO          PTSUNNY   61  59  92 NE3       30.15F
$$




USA.gov is the U.S. government's official web portal to all federal, state and local government web resources and services.